,,,PA_Meas_PMT16A,,PR_Meas_QMR101_102,,RH_Meas_QMH101,,SR_Meas_QMS101,,TA_Meas_QMH101,,GenWind,,GenWind,
date,time,status,PA,status,PR,status,RH,status,SR,status,TA,status,DirAvg,status,SpdAvg,
2009-02-10, 00:00:04,VALID,1000.93,VALID,0,VALID,92.9517,VALID,0,VALID,24.6398,VALID,303,VALID,0,
2009-02-10, 00:01:04,VALID,1000.94,VALID,0,VALID,92.9745,VALID,0,VALID,24.6203,VALID,303,VALID,0,
2009-02-10, 00:02:04,VALID,1000.93,VALID,0,VALID,92.9593,VALID,0,VALID,24.6008,VALID,303,VALID,0,
2009-02-10, 00:03:04,VALID,1000.9,VALID,0,VALID,93.1729,VALID,0,VALID,24.6222,VALID,303,VALID,0,
2009-02-10, 00:04:04,VALID,1000.91,VALID,0,VALID,93.0966,VALID,0,VALID,24.5813,VALID,303,VALID,0,
2009-02-10, 00:05:04,VALID,1000.92,VALID,0,VALID,92.9974,VALID,0,VALID,24.5618,VALID,303,VALID,0,
2009-02-10, 00:06:04,VALID,1000.92,VALID,0,VALID,92.9669,VALID,0,VALID,24.5618,VALID,303,VALID,0,
2009-02-10, 00:07:04,VALID,1000.93,VALID,0,VALID,93.1348,VALID,0,VALID,24.5813,VALID,303,VALID,0.0277344,
2009-02-10, 00:08:04,VALID,1000.91,VALID,0,VALID,93.1805,VALID,0,VALID,24.5813,VALID,303,VALID,0,
2009-02-10, 00:09:04,VALID,1000.94,VALID,0,VALID,93.2492,VALID,0,VALID,24.6008,VALID,303,VALID,0.117188,
2009-02-10, 00:10:04,VALID,1000.92,VALID,0,VALID,93.2187,VALID,0,VALID,24.6008,VALID,303,VALID,0.319141,
2009-02-10, 00:11:04,VALID,1000.93,VALID,0,VALID,93.1577,VALID,0,VALID,24.6203,VALID,303,VALID,0.320313,
2009-02-10, 00:12:04,VALID,1000.92,VALID,0,VALID,93.0814,VALID,0,VALID,24.6203,VALID,303,VALID,0.134766,
2009-02-10, 00:13:04,VALID,1000.91,VALID,0,VALID,93.0203,VALID,0,VALID,24.6203,VALID,303,VALID,0.161719,
2009-02-10, 00:14:04,VALID,1000.85,VALID,0,VALID,92.9974,VALID,0,VALID,24.6398,VALID,296,VALID,0.345703,
2009-02-10, 00:15:04,VALID,1000.87,VALID,0,VALID,92.8677,VALID,0,VALID,24.6594,VALID,341,VALID,0.343359,
2009-02-10, 00:16:04,VALID,1000.83,VALID,0,VALID,92.6846,VALID,0,VALID,24.6398,VALID,360,VALID,0.189844,
2009-02-10, 00:17:04,VALID,1000.82,VALID,0,VALID,92.8143,VALID,0,VALID,24.6594,VALID,360,VALID,0.0664063,
2009-02-10, 00:18:04,VALID,1000.81,VALID,0,VALID,92.9517,VALID,0,VALID,24.6594,VALID,360,VALID,0.445313,
2009-02-10, 00:19:04,VALID,1000.84,VALID,0,VALID,93.0051,VALID,0,VALID,24.6807,VALID,360,VALID,0.46875,
2009-02-10, 00:20:04,VALID,1000.84,VALID,0,VALID,93.1348,VALID,0,VALID,24.6398,VALID,360,VALID,0.464063,
2009-02-10, 00:21:04,VALID,1000.86,VALID,0,VALID,93.3026,VALID,0,VALID,24.6398,VALID,360,VALID,0.439063,
2009-02-10, 00:22:04,VALID,1000.85,VALID,0,VALID,93.4171,VALID,0,VALID,24.6203,VALID,360,VALID,0.592969,
2009-02-10, 00:23:04,VALID,1000.83,VALID,0,VALID,93.3866,VALID,0,VALID,24.6203,VALID,360,VALID,0.459375,
2009-02-10, 00:24:04,VALID,1000.83,VALID,0,VALID,93.44,VALID,0,VALID,24.6203,VALID,360,VALID,0.394531,
2009-02-10, 00:25:04,VALID,1000.81,VALID,0,VALID,93.5239,VALID,0,VALID,24.6417,VALID,360,VALID,0.348047,
2009-02-10, 00:26:04,VALID,1000.81,VALID,0,VALID,93.5773,VALID,0,VALID,24.6203,VALID,360,VALID,0.184766,
2009-02-10, 00:27:04,VALID,1000.77,VALID,0,VALID,93.5468,VALID,0,VALID,24.6008,VALID,360,VALID,0.283594,
2009-02-10, 00:28:04,VALID,1000.77,VALID,0,VALID,93.5468,VALID,0,VALID,24.6008,VALID,360,VALID,0.35,
2009-02-10, 00:29:04,VALID,1000.75,VALID,0,VALID,93.6002,VALID,0,VALID,24.6008,VALID,360,VALID,0.325781,
2009-02-10, 00:30:04,VALID,1000.77,VALID,0,VALID,93.5239,VALID,0,VALID,24.6027,VALID,358,VALID,0.380859,
2009-02-10, 00:31:04,VALID,1000.74,VALID,0,VALID,93.3179,VALID,0,VALID,24.5813,VALID,358,VALID,0.213672,
2009-02-10, 00:32:04,VALID,1000.72,VALID,0,VALID,93.3637,VALID,0,VALID,24.6008,VALID,358,VALID,0.371875,
2009-02-10, 00:33:04,VALID,1000.73,VALID,0,VALID,93.3789,VALID,0,VALID,24.6417,VALID,358,VALID,0.444141,
2009-02-10, 00:34:04,VALID,1000.72,VALID,0,VALID,93.4552,VALID,0,VALID,24.6398,VALID,295,VALID,0.632422,
2009-02-10, 00:35:04,VALID,1000.71,VALID,0,VALID,93.5163,VALID,0,VALID,24.6398,VALID,281,VALID,0.3125,
2009-02-10, 00:36:04,VALID,1000.71,VALID,0,VALID,93.5544,VALID,0,VALID,24.6398,VALID,275,VALID,0.390234,
2009-02-10, 00:37:04,VALID,1000.72,VALID,0,VALID,93.5926,VALID,0,VALID,24.6398,VALID,252,VALID,0.422266,
2009-02-10, 00:38:04,VALID,1000.73,VALID,0,VALID,93.5849,VALID,0,VALID,24.6398,VALID,253,VALID,0.312891,
2009-02-10, 00:39:04,VALID,1000.73,VALID,0,VALID,93.5468,VALID,0,VALID,24.6203,VALID,246,VALID,0.577344,
2009-02-10, 00:40:04,VALID,1000.69,VALID,0,VALID,93.501,VALID,0,VALID,24.6203,VALID,245,VALID,0.465234,
2009-02-10, 00:41:04,VALID,1000.66,VALID,0,VALID,93.4857,VALID,0,VALID,24.6203,VALID,238,VALID,0.469922,
2009-02-10, 00:42:04,VALID,1000.63,VALID,0,VALID,93.4247,VALID,0,VALID,24.5989,VALID,235,VALID,0.738281,
2009-02-10, 00:43:04,VALID,1000.61,VALID,0,VALID,93.3713,VALID,0,VALID,24.6203,VALID,235,VALID,0.706641,
2009-02-10, 00:44:04,VALID,1000.61,VALID,0,VALID,93.4094,VALID,0,VALID,24.6184,VALID,236,VALID,0.558984,
2009-02-10, 00:45:04,VALID,1000.63,VALID,0,VALID,93.2492,VALID,0,VALID,24.6398,VALID,228,VALID,1.00273,
2009-02-10, 00:46:04,VALID,1000.61,VALID,0,VALID,92.9822,VALID,0,VALID,24.6203,VALID,225,VALID,0.848437,
2009-02-10, 00:47:04,VALID,1000.65,VALID,0,VALID,92.822,VALID,0,VALID,24.6594,VALID,231,VALID,1.05859,
2009-02-10, 00:48:04,VALID,1000.6,VALID,0,VALID,92.6923,VALID,0,VALID,24.6789,VALID,226,VALID,1.02891,
2009-02-10, 00:49:04,VALID,1000.63,VALID,0,VALID,92.6083,VALID,0,VALID,24.6789,VALID,221,VALID,1.30625,
2009-02-10, 00:50:04,VALID,1000.63,VALID,0,VALID,92.6541,VALID,0,VALID,24.6594,VALID,221,VALID,1.30391,
2009-02-10, 00:51:04,VALID,1000.65,VALID,0,VALID,92.677,VALID,0,VALID,24.6184,VALID,209,VALID,1.13437,
2009-02-10, 00:52:04,VALID,1000.64,VALID,0,VALID,92.5702,VALID,0,VALID,24.6203,VALID,215,VALID,0.960547,
2009-02-10, 00:53:04,VALID,1000.6,VALID,0,VALID,92.738,VALID,0,VALID,24.5794,VALID,196,VALID,0.908203,
2009-02-10, 00:54:04,VALID,1000.59,VALID,0,VALID,92.677,VALID,0,VALID,24.5599,VALID,217,VALID,0.819922,
2009-02-10, 00:55:04,VALID,1000.56,VALID,0,VALID,92.7151,VALID,0,VALID,24.5618,VALID,218,VALID,0.608594,
2009-02-10, 00:56:04,VALID,1000.55,VALID,0,VALID,92.6923,VALID,0,VALID,24.5618,VALID,219,VALID,0.862109,
2009-02-10, 00:57:04,VALID,1000.54,VALID,0,VALID,92.6846,VALID,0,VALID,24.5618,VALID,222,VALID,0.891406,
2009-02-10, 00:58:04,VALID,1000.55,VALID,0,VALID,92.6923,VALID,0,VALID,24.5422,VALID,223,VALID,0.495703,
2009-02-10, 00:59:04,VALID,1000.54,VALID,0,VALID,92.7457,VALID,0,VALID,24.5422,VALID,214,VALID,0.862109,
2009-02-10, 01:00:04,VALID,1000.57,VALID,0,VALID,92.7075,VALID,0,VALID,24.5422,VALID,213,VALID,0.670703,
2009-02-10, 01:01:04,VALID,1000.54,VALID,0,VALID,92.7304,VALID,0,VALID,24.5404,VALID,213,VALID,0.530469,
2009-02-10, 01:02:04,VALID,1000.53,VALID,0,VALID,92.7991,VALID,0,VALID,24.5422,VALID,219,VALID,0.739453,
2009-02-10, 01:03:04,VALID,1000.51,VALID,0,VALID,92.822,VALID,0,VALID,24.5618,VALID,227,VALID,0.400781,
2009-02-10, 01:04:04,VALID,1000.55,VALID,0,VALID,92.8296,VALID,0,VALID,24.5404,VALID,227,VALID,0.346875,
2009-02-10, 01:05:04,VALID,1000.52,VALID,0,VALID,92.8448,VALID,0,VALID,24.5422,VALID,227,VALID,0.453906,
2009-02-10, 01:06:04,VALID,1000.52,VALID,0,VALID,92.8677,VALID,0,VALID,24.5422,VALID,211,VALID,0.522656,
2009-02-10, 01:07:04,VALID,1000.46,VALID,0,VALID,92.9364,VALID,0,VALID,24.5209,VALID,198,VALID,1.29414,
2009-02-10, 01:08:04,VALID,1000.48,VALID,0,VALID,92.9288,VALID,0,VALID,24.5618,VALID,202,VALID,0.721094,
2009-02-10, 01:09:04,VALID,1000.49,VALID,0,VALID,93.028,VALID,0,VALID,24.5813,VALID,192,VALID,1.07031,
2009-02-10, 01:10:04,VALID,1000.51,VALID,0,VALID,92.9593,VALID,0,VALID,24.5813,VALID,170,VALID,1.18711,
2009-02-10, 01:11:04,VALID,1000.53,VALID,0,VALID,92.9211,VALID,0,VALID,24.5813,VALID,159,VALID,1.44922,
2009-02-10, 01:12:04,VALID,1000.52,VALID,0,VALID,93.0051,VALID,0,VALID,24.5422,VALID,163,VALID,1.575,
2009-02-10, 01:13:04,VALID,1000.51,VALID,0,VALID,93.0585,VALID,0,VALID,24.5636,VALID,159,VALID,1.50234,
2009-02-10, 01:14:04,VALID,1000.53,VALID,0,VALID,93.1043,VALID,0,VALID,24.5209,VALID,161,VALID,1.31797,
2009-02-10, 01:15:04,VALID,1000.54,VALID,0,VALID,93.1424,VALID,0,VALID,24.5209,VALID,160,VALID,1.32656,
2009-02-10, 01:16:04,VALID,1000.56,VALID,0,VALID,93.1271,VALID,0,VALID,24.5227,VALID,159,VALID,1.68984,
2009-02-10, 01:17:04,VALID,1000.51,VALID,0,VALID,93.1729,VALID,0,VALID,24.5013,VALID,167,VALID,1.40742,
2009-02-10, 01:18:04,VALID,1000.52,VALID,0,VALID,93.1195,VALID,0,VALID,24.5013,VALID,162,VALID,1.88008,
2009-02-10, 01:19:04,VALID,1000.51,VALID,0,VALID,93.1805,VALID,0,VALID,24.4818,VALID,170,VALID,1.3582,
2009-02-10, 01:20:04,VALID,1000.42,VALID,0,VALID,93.2187,VALID,0,VALID,24.4837,VALID,166,VALID,1.18086,
2009-02-10, 01:21:04,VALID,1000.41,VALID,0,VALID,93.2111,VALID,0,VALID,24.4837,VALID,162,VALID,1.22383,
2009-02-10, 01:22:04,VALID,1000.36,VALID,0,VALID,93.1729,VALID,0,VALID,24.4623,VALID,178,VALID,1.28906,
2009-02-10, 01:23:04,VALID,1000.36,VALID,0,VALID,93.1119,VALID,0,VALID,24.4642,VALID,181,VALID,1.36406,
2009-02-10, 01:24:04,VALID,1000.29,VALID,0,VALID,93.0356,VALID,0,VALID,24.4642,VALID,173,VALID,0.911328,
2009-02-10, 01:25:04,VALID,1000.3,VALID,0,VALID,93.0737,VALID,0,VALID,24.4642,VALID,153,VALID,1.01719,
2009-02-10, 01:26:04,VALID,1000.25,VALID,0,VALID,93.028,VALID,0,VALID,24.4642,VALID,159,VALID,0.980859,
2009-02-10, 01:27:04,VALID,1000.26,VALID,0,VALID,93.0508,VALID,0,VALID,24.4446,VALID,161,VALID,0.634766,
2009-02-10, 01:28:04,VALID,1000.26,VALID,0,VALID,92.9288,VALID,0,VALID,24.4251,VALID,147,VALID,0.930859,
2009-02-10, 01:29:04,VALID,1000.25,VALID,0,VALID,92.9364,VALID,0,VALID,24.4251,VALID,159,VALID,0.61875,
2009-02-10, 01:30:04,VALID,1000.22,VALID,0,VALID,92.9211,VALID,0,VALID,24.4037,VALID,162,VALID,0.575391,
2009-02-10, 01:31:04,VALID,1000.19,VALID,0,VALID,92.9517,VALID,0,VALID,24.4251,VALID,155,VALID,0.465625,
2009-02-10, 01:32:04,VALID,1000.21,VALID,0,VALID,92.9898,VALID,0,VALID,24.4056,VALID,133,VALID,0.480469,
2009-02-10, 01:33:04,VALID,1000.2,VALID,0,VALID,93.0737,VALID,0,VALID,24.4056,VALID,133,VALID,0.475,
2009-02-10, 01:34:04,VALID,1000.18,VALID,0,VALID,93.0737,VALID,0,VALID,24.4056,VALID,133,VALID,0.185937,
2009-02-10, 01:35:04,VALID,1000.22,VALID,0,VALID,93.1577,VALID,0,VALID,24.3861,VALID,133,VALID,0.220313,
2009-02-10, 01:36:04,VALID,1000.23,VALID,0,VALID,93.2874,VALID,0,VALID,24.3861,VALID,133,VALID,0.271484,
2009-02-10, 01:37:04,VALID,1000.21,VALID,0,VALID,93.3713,VALID,0,VALID,24.3861,VALID,133,VALID,0.06875,
2009-02-10, 01:38:04,VALID,1000.21,VALID,0,VALID,93.4094,VALID,0,VALID,24.3666,VALID,100,VALID,0.527344,
2009-02-10, 01:39:04,VALID,1000.23,VALID,0,VALID,93.4705,VALID,0,VALID,24.347,VALID,87,VALID,0.535547,
2009-02-10, 01:40:04,VALID,1000.25,VALID,0,VALID,93.4705,VALID,0,VALID,24.347,VALID,44,VALID,0.815625,
2009-02-10, 01:41:04,VALID,1000.23,VALID,0,VALID,93.5926,VALID,0,VALID,24.3275,VALID,37,VALID,1.13867,
2009-02-10, 01:42:04,VALID,1000.21,VALID,0,VALID,93.6612,VALID,0,VALID,24.3275,VALID,34,VALID,0.942969,
2009-02-10, 01:43:04,VALID,1000.2,VALID,0,VALID,93.7146,VALID,0,VALID,24.3275,VALID,34,VALID,1.17852,
2009-02-10, 01:44:04,VALID,1000.21,VALID,0,VALID,93.7299,VALID,0,VALID,24.3275,VALID,34,VALID,0.975,
2009-02-10, 01:45:04,VALID,1000.2,VALID,0,VALID,93.9054,VALID,0,VALID,24.347,VALID,33,VALID,1.32656,
2009-02-10, 01:46:04,VALID,1000.19,VALID,0,VALID,93.9969,VALID,0,VALID,24.3666,VALID,23,VALID,1.4332,
2009-02-10, 01:47:04,VALID,1000.18,VALID,0,VALID,94.0045,VALID,0,VALID,24.3861,VALID,20,VALID,1.46875,
2009-02-10, 01:48:04,VALID,1000.15,VALID,0,VALID,93.9664,VALID,0,VALID,24.3666,VALID,17,VALID,1.3793,
2009-02-10, 01:49:04,VALID,1000.1,VALID,0,VALID,94.0045,VALID,0,VALID,24.3861,VALID,21,VALID,1.33086,
2009-02-10, 01:50:04,VALID,1000.13,VALID,0,VALID,93.9664,VALID,0,VALID,24.3861,VALID,23,VALID,0.996484,
2009-02-10, 01:51:04,VALID,1000.13,VALID,0,VALID,93.9893,VALID,0,VALID,24.3861,VALID,23,VALID,0.651172,
2009-02-10, 01:52:04,VALID,1000.13,VALID,0,VALID,93.9435,VALID,0,VALID,24.3861,VALID,23,VALID,0.633203,
2009-02-10, 01:53:04,VALID,1000.12,VALID,0,VALID,93.9511,VALID,0,VALID,24.4056,VALID,23,VALID,0.447266,
2009-02-10, 01:54:04,VALID,1000.18,VALID,0,VALID,93.9817,VALID,0,VALID,24.4056,VALID,23,VALID,0.242578,
2009-02-10, 01:55:04,VALID,1000.15,VALID,0,VALID,94.0274,VALID,0,VALID,24.4056,VALID,23,VALID,0.135156,
2009-02-10, 01:56:04,VALID,1000.19,VALID,0,VALID,94.0274,VALID,0,VALID,24.4251,VALID,23,VALID,0.160547,
2009-02-10, 01:57:04,VALID,1000.18,VALID,0,VALID,93.9511,VALID,0,VALID,24.4251,VALID,23,VALID,0.298438,
2009-02-10, 01:58:04,VALID,1000.17,VALID,0,VALID,93.9511,VALID,0,VALID,24.4056,VALID,23,VALID,0.244922,
2009-02-10, 01:59:04,VALID,1000.15,VALID,0,VALID,93.9664,VALID,0,VALID,24.4251,VALID,23,VALID,0.205469,
2009-02-10, 02:00:04,VALID,1000.16,VALID,0,VALID,93.9664,VALID,0,VALID,24.4056,VALID,23,VALID,0.287891,
2009-02-10, 02:01:04,VALID,1000.12,VALID,0,VALID,94.0045,VALID,0,VALID,24.4251,VALID,57,VALID,0.732422,
2009-02-10, 02:02:04,VALID,1000.08,VALID,0,VALID,93.8291,VALID,0,VALID,24.4251,VALID,79,VALID,0.992969,
2009-02-10, 02:03:04,VALID,1000.07,VALID,0,VALID,93.6231,VALID,0,VALID,24.4251,VALID,82,VALID,1.27305,
2009-02-10, 02:04:04,VALID,1000.06,VALID,0,VALID,93.6154,VALID,0,VALID,24.4446,VALID,81,VALID,1.32773,
2009-02-10, 02:05:04,VALID,1000.03,VALID,0,VALID,93.7146,VALID,0,VALID,24.4642,VALID,91,VALID,1.18477,
2009-02-10, 02:06:04,VALID,999.999,VALID,0,VALID,93.7375,VALID,0,VALID,24.4837,VALID,89,VALID,1.17852,
2009-02-10, 02:07:04,VALID,999.988,VALID,0,VALID,93.707,VALID,0,VALID,24.4642,VALID,83,VALID,1.1832,
2009-02-10, 02:08:04,VALID,999.978,VALID,0,VALID,93.7223,VALID,0,VALID,24.4446,VALID,94,VALID,1.08477,
2009-02-10, 02:09:04,VALID,999.955,VALID,0,VALID,93.7451,VALID,0,VALID,24.4642,VALID,88,VALID,0.789844,
2009-02-10, 02:10:04,VALID,999.951,VALID,0,VALID,93.6841,VALID,0,VALID,24.4446,VALID,78,VALID,0.798437,
2009-02-10, 02:11:04,VALID,999.941,VALID,0,VALID,93.5926,VALID,0,VALID,24.4251,VALID,78,VALID,1.14688,
2009-02-10, 02:12:04,VALID,999.964,VALID,0,VALID,93.7223,VALID,0,VALID,24.4465,VALID,70,VALID,1.18477,
2009-02-10, 02:13:04,VALID,999.945,VALID,0,VALID,93.6765,VALID,0,VALID,24.4056,VALID,64,VALID,1.35859,
2009-02-10, 02:14:04,VALID,999.936,VALID,0,VALID,93.9893,VALID,0,VALID,24.4251,VALID,48,VALID,1.23867,
2009-02-10, 02:15:04,VALID,999.909,VALID,0,VALID,94.2258,VALID,0,VALID,24.4465,VALID,37,VALID,1.62539,
2009-02-10, 02:16:04,VALID,999.907,VALID,0,VALID,94.4013,VALID,0,VALID,24.5051,VALID,39,VALID,1.88203,
2009-02-10, 02:17:04,VALID,999.872,VALID,0,VALID,94.4547,VALID,0,VALID,24.4837,VALID,34,VALID,2.2582,
2009-02-10, 02:18:04,VALID,999.833,VALID,0,VALID,94.6073,VALID,0,VALID,24.5032,VALID,48,VALID,1.53906,
2009-02-10, 02:19:04,VALID,999.814,VALID,0,VALID,94.592,VALID,0,VALID,24.5032,VALID,49,VALID,1.8875,
2009-02-10, 02:20:04,VALID,999.765,VALID,0,VALID,94.47,VALID,0,VALID,24.4837,VALID,54,VALID,2.00742,
2009-02-10, 02:21:04,VALID,999.76,VALID,0,VALID,94.4318,VALID,0,VALID,24.4642,VALID,53,VALID,1.925,
2009-02-10, 02:22:04,VALID,999.735,VALID,0,VALID,94.4471,VALID,0,VALID,24.4642,VALID,49,VALID,1.53359,
2009-02-10, 02:23:04,VALID,999.753,VALID,0,VALID,94.2411,VALID,0,VALID,24.4251,VALID,44,VALID,2.09219,
2009-02-10, 02:24:04,VALID,999.755,VALID,0,VALID,94.2563,VALID,0,VALID,24.4446,VALID,36,VALID,1.76211,
2009-02-10, 02:25:04,VALID,999.817,VALID,0,VALID,94.1648,VALID,0,VALID,24.4465,VALID,32,VALID,1.95664,
2009-02-10, 02:26:04,VALID,999.812,VALID,0,VALID,94.3174,VALID,0,VALID,24.4446,VALID,23,VALID,2.11914,
2009-02-10, 02:27:04,VALID,999.812,VALID,0,VALID,94.2334,VALID,0,VALID,24.4446,VALID,13,VALID,2.17734,
2009-02-10, 02:28:04,VALID,999.852,VALID,0,VALID,94.2945,VALID,0,VALID,24.4642,VALID,13,VALID,1.83906,
2009-02-10, 02:29:04,VALID,999.868,VALID,0,VALID,94.2334,VALID,0,VALID,24.4642,VALID,8,VALID,1.59258,
2009-02-10, 02:30:04,VALID,999.856,VALID,0,VALID,94.1495,VALID,0,VALID,24.4446,VALID,29,VALID,1.4707,
2009-02-10, 02:31:04,VALID,999.841,VALID,0,VALID,94.1571,VALID,0,VALID,24.4855,VALID,32,VALID,1.20547,
2009-02-10, 02:32:04,VALID,999.835,VALID,0,VALID,93.9435,VALID,0,VALID,24.4446,VALID,44,VALID,1.38086,
2009-02-10, 02:33:04,VALID,999.799,VALID,0,VALID,93.6917,VALID,0,VALID,24.4251,VALID,51,VALID,1.15742,
2009-02-10, 02:34:04,VALID,999.795,VALID,0,VALID,93.6231,VALID,0,VALID,24.4251,VALID,59,VALID,1.30469,
2009-02-10, 02:35:04,VALID,999.81,VALID,0,VALID,93.44,VALID,0,VALID,24.4446,VALID,66,VALID,1.12188,
2009-02-10, 02:36:04,VALID,999.763,VALID,0,VALID,93.6002,VALID,0,VALID,24.4837,VALID,73,VALID,1.28281,
2009-02-10, 02:37:04,VALID,999.788,VALID,0,VALID,93.6154,VALID,0,VALID,24.4837,VALID,74,VALID,1.38359,
2009-02-10, 02:38:04,VALID,999.771,VALID,0,VALID,93.6002,VALID,0,VALID,24.4837,VALID,75,VALID,1.29258,
2009-02-10, 02:39:04,VALID,999.763,VALID,0,VALID,93.7528,VALID,0,VALID,24.4837,VALID,75,VALID,0.71875,
2009-02-10, 02:40:04,VALID,999.765,VALID,0,VALID,93.4934,VALID,0,VALID,24.4837,VALID,87,VALID,0.782812,
2009-02-10, 02:41:04,VALID,999.792,VALID,0,VALID,93.5391,VALID,0,VALID,24.4642,VALID,89,VALID,0.28125,
2009-02-10, 02:42:04,VALID,999.804,VALID,0,VALID,93.6536,VALID,0,VALID,24.4837,VALID,189,VALID,0.537891,
2009-02-10, 02:43:04,VALID,999.794,VALID,0,VALID,93.8062,VALID,0,VALID,24.5032,VALID,207,VALID,0.716016,
2009-02-10, 02:44:04,VALID,999.819,VALID,0,VALID,93.8825,VALID,0,VALID,24.5032,VALID,243,VALID,1.05,
2009-02-10, 02:45:04,VALID,999.849,VALID,0.5,VALID,93.7528,VALID,0,VALID,24.5032,VALID,222,VALID,1.13086,
2009-02-10, 02:46:04,VALID,999.827,VALID,0.5,VALID,93.6383,VALID,0,VALID,24.5032,VALID,206,VALID,1.77813,
2009-02-10, 02:47:04,VALID,999.821,VALID,0,VALID,93.6383,VALID,0,VALID,24.4837,VALID,192,VALID,1.89688,
2009-02-10, 02:48:04,VALID,999.814,VALID,0.5,VALID,93.3103,VALID,0,VALID,24.4446,VALID,189,VALID,2.13594,
2009-02-10, 02:49:04,VALID,999.816,VALID,0,VALID,93.2874,VALID,0,VALID,24.4056,VALID,201,VALID,1.94687,
2009-02-10, 02:50:04,VALID,999.824,VALID,0,VALID,92.9211,VALID,0,VALID,24.4642,VALID,198,VALID,1.89453,
2009-02-10, 02:51:04,VALID,999.825,VALID,0.5,VALID,91.586,VALID,0,VALID,24.4837,VALID,196,VALID,1.64727,
2009-02-10, 02:52:04,VALID,999.817,VALID,0.5,VALID,91.7004,VALID,0,VALID,24.4642,VALID,192,VALID,2.04141,
2009-02-10, 02:53:04,VALID,999.841,VALID,0,VALID,92.2574,VALID,0,VALID,24.466,VALID,185,VALID,2.24688,
2009-02-10, 02:54:04,VALID,999.819,VALID,0,VALID,92.5854,VALID,0,VALID,24.4251,VALID,185,VALID,1.94023,
2009-02-10, 02:55:04,VALID,999.855,VALID,0,VALID,92.5091,VALID,0,VALID,24.4056,VALID,207,VALID,1.15391,
2009-02-10, 02:56:04,VALID,999.873,VALID,0,VALID,92.7685,VALID,0,VALID,24.3666,VALID,224,VALID,0.701953,
2009-02-10, 02:57:04,VALID,999.87,VALID,0,VALID,92.4786,VALID,0,VALID,24.308,VALID,211,VALID,1.23398,
2009-02-10, 02:58:04,VALID,999.844,VALID,0.5,VALID,92.9974,VALID,0,VALID,24.308,VALID,223,VALID,0.846094,
2009-02-10, 02:59:04,VALID,999.865,VALID,0,VALID,92.7991,VALID,0,VALID,24.269,VALID,222,VALID,1.14805,
2009-02-10, 03:00:04,VALID,999.86,VALID,0.5,VALID,92.9059,VALID,0,VALID,24.2513,VALID,214,VALID,1.2793,
2009-02-10, 03:01:04,VALID,999.871,VALID,0,VALID,93.0127,VALID,0,VALID,24.2104,VALID,241,VALID,1.09141,
2009-02-10, 03:02:04,VALID,999.905,VALID,0,VALID,93.2568,VALID,0,VALID,24.1909,VALID,257,VALID,0.730078,
2009-02-10, 03:03:04,VALID,999.92,VALID,0.5,VALID,93.5163,VALID,0,VALID,24.1909,VALID,286,VALID,0.697266,
2009-02-10, 03:04:04,VALID,999.965,VALID,0,VALID,93.6917,VALID,0,VALID,24.15,VALID,294,VALID,0.914063,
2009-02-10, 03:05:04,VALID,999.958,VALID,0.5,VALID,94.0198,VALID,0,VALID,24.1714,VALID,296,VALID,0.627734,
2009-02-10, 03:06:04,VALID,999.926,VALID,0,VALID,94.1953,VALID,0,VALID,24.1519,VALID,302,VALID,0.716406,
2009-02-10, 03:07:04,VALID,999.989,VALID,0.5,VALID,94.386,VALID,0,VALID,24.1519,VALID,309,VALID,0.217187,
2009-02-10, 03:08:04,VALID,999.973,VALID,0,VALID,94.4165,VALID,0,VALID,24.1324,VALID,292,VALID,0.482031,
2009-02-10, 03:09:04,VALID,999.928,VALID,0,VALID,94.5234,VALID,0,VALID,24.1128,VALID,292,VALID,0,
2009-02-10, 03:10:04,VALID,999.842,VALID,0.5,VALID,94.6073,VALID,0,VALID,24.1128,VALID,40,VALID,0.538672,
2009-02-10, 03:11:04,VALID,999.81,VALID,0,VALID,94.5539,VALID,0,VALID,24.0933,VALID,67,VALID,0.563672,
2009-02-10, 03:12:04,VALID,999.848,VALID,0,VALID,94.5691,VALID,0,VALID,24.0543,VALID,67,VALID,0.00195313,
2009-02-10, 03:13:04,VALID,999.864,VALID,0.5,VALID,94.6988,VALID,0,VALID,24.0543,VALID,67,VALID,0.135547,
2009-02-10, 03:14:04,VALID,999.846,VALID,0,VALID,94.7599,VALID,0,VALID,24.0348,VALID,67,VALID,0,
2009-02-10, 03:15:04,VALID,999.847,VALID,0,VALID,94.8362,VALID,0,VALID,24.0348,VALID,67,VALID,0,
2009-02-10, 03:16:04,VALID,999.848,VALID,0,VALID,94.8591,VALID,0,VALID,24.0153,VALID,67,VALID,0.233203,
2009-02-10, 03:17:04,VALID,999.841,VALID,0,VALID,94.8209,VALID,0,VALID,24.0153,VALID,67,VALID,0.498047,
2009-02-10, 03:18:04,VALID,999.835,VALID,0,VALID,94.8438,VALID,0,VALID,23.9957,VALID,67,VALID,0.578906,
2009-02-10, 03:19:04,VALID,999.839,VALID,0,VALID,94.7904,VALID,0,VALID,23.9957,VALID,67,VALID,0.691016,
2009-02-10, 03:20:04,VALID,999.81,VALID,0,VALID,94.9201,VALID,0,VALID,23.9957,VALID,71,VALID,0.635547,
2009-02-10, 03:21:04,VALID,999.779,VALID,0,VALID,95.0345,VALID,0,VALID,24.0348,VALID,90,VALID,0.496875,
2009-02-10, 03:22:04,VALID,999.76,VALID,0,VALID,94.9277,VALID,0,VALID,24.0348,VALID,103,VALID,0.605859,
2009-02-10, 03:23:04,VALID,999.745,VALID,0,VALID,94.8896,VALID,0,VALID,24.0366,VALID,103,VALID,0.494141,
2009-02-10, 03:24:04,VALID,999.732,VALID,0,VALID,94.8591,VALID,0,VALID,24.0348,VALID,103,VALID,0.345703,
2009-02-10, 03:25:04,VALID,999.732,VALID,0,VALID,94.8972,VALID,0,VALID,24.0153,VALID,103,VALID,0.394141,
2009-02-10, 03:26:04,VALID,999.729,VALID,0,VALID,94.8896,VALID,0,VALID,24.0153,VALID,103,VALID,0.448438,
2009-02-10, 03:27:04,VALID,999.756,VALID,0,VALID,94.8896,VALID,0,VALID,24.0153,VALID,144,VALID,0.55625,
2009-02-10, 03:28:04,VALID,999.711,VALID,0,VALID,94.8514,VALID,0,VALID,24.0153,VALID,144,VALID,0.452734,
2009-02-10, 03:29:04,VALID,999.725,VALID,0,VALID,94.9125,VALID,0,VALID,24.0366,VALID,144,VALID,0.512891,
2009-02-10, 03:30:04,VALID,999.7,VALID,0,VALID,94.9583,VALID,0,VALID,24.0348,VALID,144,VALID,0.650391,
2009-02-10, 03:31:04,VALID,999.695,VALID,0,VALID,94.9735,VALID,0,VALID,24.0561,VALID,136,VALID,0.637891,
2009-02-10, 03:32:04,VALID,999.685,VALID,0,VALID,94.9964,VALID,0,VALID,24.0561,VALID,125,VALID,0.867578,
2009-02-10, 03:33:04,VALID,999.672,VALID,0,VALID,95.0345,VALID,0,VALID,24.0756,VALID,125,VALID,0.751953,
2009-02-10, 03:34:04,VALID,999.65,VALID,0,VALID,95.0422,VALID,0,VALID,24.0543,VALID,132,VALID,1.1418,
2009-02-10, 03:35:04,VALID,999.648,VALID,0,VALID,95.004,VALID,0,VALID,24.0543,VALID,137,VALID,1.25391,
2009-02-10, 03:36:04,VALID,999.678,VALID,0,VALID,95.0498,VALID,0,VALID,24.0543,VALID,139,VALID,1.19805,
2009-02-10, 03:37:04,VALID,999.674,VALID,0,VALID,95.0269,VALID,0,VALID,24.0543,VALID,133,VALID,1.19414,
2009-02-10, 03:38:04,VALID,999.662,VALID,0,VALID,95.0193,VALID,0,VALID,24.0543,VALID,136,VALID,1.23203,
2009-02-10, 03:39:04,VALID,999.712,VALID,0,VALID,95.0117,VALID,0,VALID,24.0756,VALID,138,VALID,0.959375,
2009-02-10, 03:40:04,VALID,999.694,VALID,0,VALID,95.0345,VALID,0,VALID,24.0348,VALID,138,VALID,0.862891,
2009-02-10, 03:41:04,VALID,999.703,VALID,0,VALID,95.004,VALID,0,VALID,24.0348,VALID,147,VALID,0.788281,
2009-02-10, 03:42:04,VALID,999.668,VALID,0,VALID,94.9888,VALID,0,VALID,24.0366,VALID,144,VALID,0.700391,
2009-02-10, 03:43:04,VALID,999.726,VALID,0,VALID,94.9659,VALID,0,VALID,24.0153,VALID,141,VALID,0.514844,
2009-02-10, 03:44:04,VALID,999.724,VALID,0,VALID,95.004,VALID,0,VALID,24.0171,VALID,142,VALID,0.362109,
2009-02-10, 03:45:04,VALID,999.695,VALID,0,VALID,95.004,VALID,0,VALID,23.9762,VALID,142,VALID,0.253906,
2009-02-10, 03:46:04,VALID,999.697,VALID,0,VALID,94.9811,VALID,0,VALID,23.9762,VALID,133,VALID,0.579297,